Location: Newark
(52.3735°N, 16.9806°E)
Time: 03:29:05
(UTC+00:00)

LilacSat-2 - Pass Details

Date: 01 December 2021
Orbit: 511 x 532 km, 97.5° (Epoch: 16 January)

Event Time Altitude Azimuth Distance (km) Brightness Sun altitude
Rises 05:42:52 0° 6° (N) 2,684 ? -8.3°
Reaches altitude 10° 05:45:08 10° 356° (N) 1,792 ? -8.0°
Maximum altitude 05:48:34 31° 294° (WNW) 953 ? -7.5°
Drops below altitude 10° 05:51:59 10° 231° (SW) 1,785 ? -7.0°
Sets 05:54:14 0° 221° (SW) 2,672 ? -6.7°
